Location: Newark
(40.9833°N, 0.0333°W)
Time: 12:51:22
(UTC+00:00)

Tiros 1 - Visible Passes

Search period start: 30 October 2020 00:00
Search period end: 09 November 2020 00:00
Orbit: 630 x 663 km, 48.4° (Epoch: 29 October)

Date Brightness Start Highest point End Pass type
(mag) Time Alt. Az. Time Alt. Az. Time Alt. Az.
30 Oct 9.5 03:24:14 19° NE 03:24:14 19° NE 03:25:36 10° ENE visible
30 Oct 8.1 05:01:54 25° NW 05:03:43 33° N 05:07:55 10° ENE visible
31 Oct 8.9 03:49:13 27° NE 03:49:13 27° NE 03:51:37 10° NE visible
31 Oct 8.2 05:26:53 15° NW 05:30:07 32° N 05:34:18 10° ENE visible
01 Nov 8.3 04:14:10 32° N 04:14:10 32° N 04:17:46 10° ENE visible
01 Nov 8.0 05:52:10 10° NW 05:56:30 39° NNE 06:00:51 10° E visible
02 Nov 10.3 03:01:27 10° NE 03:01:27 10° NE 03:01:30 10° NE visible
02 Nov 8.2 04:39:07 30° NNW 04:39:57 32° N 04:44:08 10° ENE visible
03 Nov 9.7 03:26:24 17° NE 03:26:24 17° NE 03:27:37 10° ENE visible
03 Nov 8.1 05:04:04 23° NW 05:06:21 38° NNE 05:10:40 10° E visible
04 Nov 9.0 03:51:23 25° NE 03:51:23 25° NE 03:53:57 10° ENE visible
04 Nov 7.6 05:29:03 16° NW 05:32:38 54° NNE 05:37:10 10° E visible
05 Nov 8.2 04:16:22 36° NNE 04:16:22 36° NNE 04:20:29 10° E visible
05 Nov 7.1 05:54:06 10° WNW 05:58:44 88° SW 06:03:21 10° ESE visible
06 Nov 10.3 03:03:44 10° ENE 03:03:44 10° ENE 03:03:47 10° ENE visible
06 Nov 7.6 04:41:24 42° NNW 04:42:29 51° NNE 04:46:59 10° E visible
07 Nov 9.6 03:28:50 19° ENE 03:28:50 19° ENE 03:30:17 10° ENE visible
07 Nov 7.0 05:06:30 32° WNW 05:08:37 87° NE 05:13:14 10° ESE visible
08 Nov 8.7 03:53:58 33° ENE 03:53:58 33° ENE 03:56:49 10° E visible
08 Nov 7.5 05:31:38 20° WNW 05:34:32 47° SW 05:38:57 10° SE visible
